Location: Chena
(64.8152°N, 147.9227°W)
Time: 16:28:22
(UTC+00:00)

Vanguard 3 - All Passes

Search period start: 27 February 2021 00:00
Search period end: 09 March 2021 00:00
Orbit: 508 x 3261 km, 33.3° (Epoch: 26 February)

Date Brightness Start Highest point End Pass type
(mag) Time Alt. Az. Time Alt. Az. Time Alt. Az.
01 Mar - 03:08:16 10° S 03:10:45 11° S 03:13:04 10° S daylight
02 Mar - 01:53:35 10° S 01:56:52 11° SSE 01:59:54 10° SSE daylight
02 Mar - 04:04:24 10° SSW 04:07:08 11° SSW 04:09:39 10° S visible
03 Mar - 02:47:44 10° SSW 02:53:22 13° S 02:58:15 10° SSE daylight
04 Mar - 01:32:52 10° SSW 01:39:20 13° S 01:44:59 10° SSE daylight
04 Mar - 03:44:32 10° SW 03:49:45 13° SSW 03:54:17 10° S daylight
05 Mar - 00:19:43 10° S 00:25:09 12° SSE 00:30:09 10° SE daylight
05 Mar - 02:28:12 10° SSW 02:35:51 15° S 02:42:18 10° SSE daylight
05 Mar - 04:44:42 10° SSW 04:45:54 10° SSW 04:47:04 10° SSW visible
06 Mar - 01:13:10 10° SSW 01:21:40 15° S 01:29:00 10° SE daylight
06 Mar - 03:25:20 10° SW 03:32:14 14° SSW 03:38:06 10° S daylight
06 Mar - 23:59:31 10° S 00:07:22 14° SSE 00:14:27 10° SE daylight
07 Mar - 02:09:03 10° SW 02:18:11 16° S 02:25:54 10° SSE daylight
07 Mar - 04:24:44 10° SW 04:28:21 11° SSW 04:31:40 10° SSW visible
07 Mar - 22:48:18 10° SSE 22:53:06 11° SSE 22:57:42 10° SE daylight
08 Mar - 00:53:56 10° SSW 01:03:53 17° S 01:12:31 10° SE daylight
08 Mar - 03:06:25 10° SW 03:14:34 15° SSW 03:21:30 10° S daylight
